Regional Weather Roundup
Issued by NWS

Current Version | Previous Version | Text Only | Print | Product List | Glossary On
Versions: 1 2 3 4 5 6 7 8 9 10 11 12 13 14 15 16 17 18 19 20 21 22 23 24 25 26 27 28 29 30 31 32 33 34 35 36 37 38 39 40 41 42 43 44 45 46 47 48 49 50
000
ASUS44 KOUN 261300
RWROK

WEATHER ROUNDUP FOR OKLAHOMA
NATIONAL WEATHER SERVICE NORMAN OK
800 AM CDT SUN APR 26 2015

NOTE: "FAIR" INDICATES FEW OR NO CLOUDS BELOW 12,000 FEET WITH NO
      SIGNIFICANT WEATHER AND/OR OBSTRUCTIONS TO VISIBILITY.

OKZ001>007-009>012-014-015-017-261400-
NORTHWEST OKLAHOMA AND THE PANHANDLE

CITY           SKY/WX    TMP DP  RH WIND       PRES   REMARKS
GAGE           CLOUDY    52  51  97 E14G20    29.76R FOG
GUYMON         CLOUDY    55  51  86 E17G23    29.74R
ENID/WOODRING  CLOUDY    55  52  88 NE12G17   29.80R
$$

OKZ016-021>023-033>039-044-045-261400-
SOUTHWEST OKLAHOMA

CITY           SKY/WX    TMP DP  RH WIND       PRES   REMARKS
LAWTON/REGL    SUNNY     57  52  83 NE7       29.71R
LAWTON/FT SILL SUNNY     57  55  92 NE8       29.70R
FREDERICK      SUNNY     55  50  83 NE7       29.67R
CLINTON        CLOUDY    56  54  93 E16       29.75R FOG
HOBART         SUNNY     56  54  93 E17       29.72R
$$

OKZ018>020-024>031-261400-
CENTRAL OKLAHOMA

CITY           SKY/WX    TMP DP  RH WIND       PRES   REMARKS
OKLAHOMA CITY  CLOUDY    59  53  80 E15       29.75R
OKC/WILEY POST CLOUDY    58  54  86 NE14G21   29.76R
OKC/TINKER AFB CLOUDY    57  54  90 NE14      29.75R
STILLWATER     CLOUDY    56  51  84 E13       29.80R
GUTHRIE        CLOUDY    57  52  83 NE10      29.78R
$$

OKZ008-013-054>072-261400-
NORTHEAST OKLAHOMA

CITY           SKY/WX    TMP DP  RH WIND       PRES   REMARKS
TULSA          CLOUDY    57  52  83 NE13      29.79R
TULSA/JONES    CLOUDY    58  53  84 NE10      29.79R
PONCA CITY     CLOUDY    53  50  89 E16       29.81R
BARTLESVILLE     N/A     53  50  89 E13       29.84R
MUSKOGEE       MOSUNNY   59  56  89 NE12      29.79R
$$

OKZ032-040>043-046>053-073>077-261400-
SOUTH CENTRAL/SOUTHEAST OKLAHOMA

CITY           SKY/WX    TMP DP  RH WIND       PRES   REMARKS
MCALESTER      MOSUNNY   61  55  81 NE6       29.75R
$$




USA.gov is the U.S. government's official web portal to all federal, state and local government web resources and services.